Time,TemperatureF,DewpointF,PressureIn,WindDirection,WindDirectionDegrees,WindSpeedMPH,WindSpeedGustMPH,Humidity,HourlyPrecipIn,Conditions,Clouds,dailyrainin,SolarRadiationWatts/m^2,SoftwareType,DateUTC
2013-02-11 00:02:00,47.0,47.0,-100.00,East,80,3.0,7.0,100,0.02,,,1.18,0.000000,,2013-02-11 05:02:00,
2013-02-11 00:22:00,47.0,47.0,-100.00,East,80,3.0,7.0,100,0.02,,,1.18,0.000000,,2013-02-11 05:22:00,
2013-02-11 00:32:00,47.0,47.0,-100.00,East,80,3.0,7.0,100,0.02,,,1.18,0.000000,,2013-02-11 05:32:00,
2013-02-11 00:42:00,47.0,47.0,-100.00,East,80,3.0,7.0,100,0.02,,,1.18,0.000000,,2013-02-11 05:42:00,
2013-02-11 00:53:00,47.0,47.0,-100.00,East,80,3.0,7.0,100,0.02,,,1.18,0.000000,,2013-02-11 05:53:00,
2013-02-11 01:02:00,47.0,47.0,-100.00,NE,40,3.0,6.0,100,0.01,,,1.19,0.000000,,2013-02-11 06:02:00,
2013-02-11 01:32:00,47.0,47.0,-100.00,NE,40,3.0,6.0,100,0.01,,,1.19,0.000000,,2013-02-11 06:32:00,
2013-02-11 01:42:00,47.0,47.0,-100.00,NE,40,3.0,6.0,100,0.01,,,1.19,0.000000,,2013-02-11 06:42:00,
2013-02-11 01:52:00,47.0,47.0,-100.00,NE,40,3.0,6.0,100,0.01,,,1.19,0.000000,,2013-02-11 06:52:00,
2013-02-11 02:32:00,48.0,48.0,-100.00,East,96,2.0,5.0,100,0.05,,,1.24,0.000000,,2013-02-11 07:32:00,
2013-02-11 02:42:00,48.0,48.0,-100.00,East,96,2.0,5.0,100,0.05,,,1.24,0.000000,,2013-02-11 07:42:00,
2013-02-11 02:52:00,48.0,48.0,-100.00,East,96,2.0,5.0,100,0.05,,,1.24,0.000000,,2013-02-11 07:52:00,
2013-02-11 03:01:00,48.0,48.0,-100.00,East,96,2.0,5.0,100,0.05,,,1.24,0.000000,,2013-02-11 08:01:00,
2013-02-11 03:02:00,48.0,48.0,-100.00,NNW,343,3.0,5.0,100,0.03,,,1.27,0.000000,,2013-02-11 08:02:00,
2013-02-11 03:32:00,48.0,48.0,-100.00,NNW,343,3.0,5.0,100,0.03,,,1.27,0.000000,,2013-02-11 08:32:00,
2013-02-11 03:42:00,48.0,48.0,-100.00,NNW,343,3.0,5.0,100,0.03,,,1.27,0.000000,,2013-02-11 08:42:00,
2013-02-11 03:52:00,48.0,48.0,-100.00,NNW,343,3.0,5.0,100,0.03,,,1.27,0.000000,,2013-02-11 08:52:00,
2013-02-11 04:32:00,48.0,48.0,-100.00,NE,48,2.0,5.0,100,0.14,,,1.41,0.000000,,2013-02-11 09:32:00,
2013-02-11 04:42:00,48.0,48.0,-100.00,NE,48,2.0,5.0,100,0.14,,,1.41,0.000000,,2013-02-11 09:42:00,
2013-02-11 04:52:00,48.0,48.0,-100.00,NE,48,2.0,5.0,100,0.14,,,1.41,0.000000,,2013-02-11 09:52:00,
2013-02-11 05:01:00,48.0,48.0,-100.00,NE,48,2.0,5.0,100,0.14,,,1.41,0.000000,,2013-02-11 10:01:00,
2013-02-11 05:02:00,48.0,48.0,-100.00,NE,39,3.0,5.0,100,0.05,,,1.46,0.000000,,2013-02-11 10:02:00,
2013-02-11 05:32:00,48.0,48.0,-100.00,NE,39,3.0,5.0,100,0.05,,,1.46,0.000000,,2013-02-11 10:32:00,
2013-02-11 05:42:00,48.0,48.0,-100.00,NE,39,3.0,5.0,100,0.05,,,1.46,0.000000,,2013-02-11 10:42:00,
2013-02-11 05:52:00,48.0,48.0,-100.00,NE,39,3.0,5.0,100,0.05,,,1.46,0.000000,,2013-02-11 10:52:00,
2013-02-11 06:02:00,49.0,49.0,-100.00,NNE,14,3.0,6.0,100,0.00,,,1.46,0.000000,,2013-02-11 11:02:00,
2013-02-11 06:32:00,49.0,49.0,-100.00,NNE,14,3.0,6.0,100,0.00,,,1.46,0.000000,,2013-02-11 11:32:00,
2013-02-11 06:42:00,49.0,49.0,-100.00,NNE,14,3.0,6.0,100,0.00,,,1.46,0.000000,,2013-02-11 11:42:00,
2013-02-11 06:52:00,49.0,49.0,-100.00,NNE,14,3.0,6.0,100,0.00,,,1.46,0.000000,,2013-02-11 11:52:00,
2013-02-11 07:02:00,49.0,49.0,-100.00,NE,44,2.0,5.0,100,0.01,,,-99.99,0.000000,,2013-02-11 12:02:00,
2013-02-11 07:32:00,49.0,49.0,-100.00,NE,44,2.0,5.0,100,0.01,,,-99.99,0.000000,,2013-02-11 12:32:00,
2013-02-11 07:42:00,49.0,49.0,-100.00,NE,44,2.0,5.0,100,0.01,,,-99.99,0.000000,,2013-02-11 12:42:00,
2013-02-11 07:52:00,49.0,49.0,-100.00,NE,44,2.0,5.0,100,0.01,,,-99.99,0.000000,,2013-02-11 12:52:00,
2013-02-11 08:02:00,49.0,49.0,-100.00,North,355,2.0,4.0,100,0.06,,,-99.99,1.000000,,2013-02-11 13:02:00,
2013-02-11 08:33:00,49.0,49.0,-100.00,North,355,2.0,4.0,100,0.06,,,-99.99,1.000000,,2013-02-11 13:33:00,
2013-02-11 08:42:00,49.0,49.0,-100.00,North,355,2.0,4.0,100,0.06,,,-99.99,1.000000,,2013-02-11 13:42:00,
2013-02-11 08:52:00,49.0,49.0,-100.00,North,355,2.0,4.0,100,0.06,,,-99.99,1.000000,,2013-02-11 13:52:00,
2013-02-11 09:02:00,50.0,50.0,-100.00,NE,55,2.0,4.0,100,0.02,,,-99.99,16.000000,,2013-02-11 14:02:00,
2013-02-11 09:33:00,50.0,50.0,-100.00,NE,55,2.0,4.0,100,0.02,,,-99.99,16.000000,,2013-02-11 14:33:00,
2013-02-11 09:42:00,50.0,50.0,-100.00,NE,55,2.0,4.0,100,0.02,,,-99.99,16.000000,,2013-02-11 14:42:00,
2013-02-11 09:53:00,50.0,50.0,-100.00,NE,55,2.0,4.0,100,0.02,,,-99.99,16.000000,,2013-02-11 14:53:00,
2013-02-11 10:02:00,51.0,51.0,-100.00,NW,306,2.0,5.0,100,0.01,,,1.56,22.000000,,2013-02-11 15:02:00,
2013-02-11 10:32:00,51.0,51.0,-100.00,NW,306,2.0,5.0,100,0.01,,,1.56,22.000000,,2013-02-11 15:32:00,
2013-02-11 10:42:00,51.0,51.0,-100.00,NW,306,2.0,5.0,100,0.01,,,1.56,22.000000,,2013-02-11 15:42:00,
2013-02-11 10:52:00,51.0,51.0,-100.00,NW,306,2.0,5.0,100,0.01,,,1.56,22.000000,,2013-02-11 15:52:00,
2013-02-11 11:02:00,52.0,52.0,-100.00,NNW,341,2.0,5.0,100,0.02,,,1.58,33.000000,,2013-02-11 16:02:00,
2013-02-11 11:32:00,52.0,52.0,-100.00,NNW,341,2.0,5.0,100,0.02,,,1.58,33.000000,,2013-02-11 16:32:00,
2013-02-11 11:42:00,52.0,52.0,-100.00,NNW,341,2.0,5.0,100,0.02,,,1.58,33.000000,,2013-02-11 16:42:00,
2013-02-11 11:53:00,52.0,52.0,-100.00,NNW,341,2.0,5.0,100,0.02,,,1.58,33.000000,,2013-02-11 16:53:00,
2013-02-11 12:02:00,53.0,53.0,-100.00,West,276,3.0,8.0,100,0.00,,,1.58,56.000000,,2013-02-11 17:02:00,
2013-02-11 12:32:00,53.0,53.0,-100.00,West,276,3.0,8.0,100,0.00,,,1.58,56.000000,,2013-02-11 17:32:00,
2013-02-11 12:42:00,53.0,53.0,-100.00,West,276,3.0,8.0,100,0.00,,,1.58,56.000000,,2013-02-11 17:42:00,
2013-02-11 12:53:00,53.0,53.0,-100.00,West,276,3.0,8.0,100,0.00,,,1.58,56.000000,,2013-02-11 17:53:00,
2013-02-11 13:02:00,54.0,54.0,-100.00,West,276,3.0,9.0,100,0.00,,,1.58,70.000000,,2013-02-11 18:02:00,
2013-02-11 13:22:00,54.0,54.0,-100.00,West,276,3.0,9.0,100,0.00,,,1.58,70.000000,,2013-02-11 18:22:00,
2013-02-11 13:32:00,54.0,54.0,-100.00,West,276,3.0,9.0,100,0.00,,,1.58,70.000000,,2013-02-11 18:32:00,
2013-02-11 13:42:00,54.0,54.0,-100.00,West,276,3.0,9.0,100,0.00,,,1.58,70.000000,,2013-02-11 18:42:00,
2013-02-11 13:54:00,54.0,54.0,-100.00,West,276,3.0,9.0,100,0.00,,,1.58,70.000000,,2013-02-11 18:54:00,
2013-02-11 14:02:00,55.0,55.0,-100.00,South,179,2.0,9.0,100,0.00,,,1.58,94.000000,,2013-02-11 19:02:00,
2013-02-11 14:22:00,55.0,55.0,-100.00,South,179,2.0,9.0,100,0.00,,,1.58,94.000000,,2013-02-11 19:22:00,
2013-02-11 14:32:00,55.0,55.0,-100.00,South,179,2.0,9.0,100,0.00,,,1.58,94.000000,,2013-02-11 19:32:00,
2013-02-11 14:42:00,55.0,55.0,-100.00,South,179,2.0,9.0,100,0.00,,,1.58,94.000000,,2013-02-11 19:42:00,
2013-02-11 14:52:00,55.0,55.0,-100.00,South,179,2.0,9.0,100,0.00,,,1.58,94.000000,,2013-02-11 19:52:00,
2013-02-11 15:02:00,55.0,54.0,-100.00,WNW,286,3.0,9.0,96,0.00,,,1.58,84.000000,,2013-02-11 20:02:00,
2013-02-11 15:32:00,55.0,54.0,-100.00,WNW,286,3.0,9.0,96,0.00,,,1.58,84.000000,,2013-02-11 20:32:00,
2013-02-11 15:42:00,55.0,54.0,-100.00,WNW,286,3.0,9.0,96,0.00,,,1.58,84.000000,,2013-02-11 20:42:00,
2013-02-11 15:52:00,55.0,54.0,-100.00,WNW,286,3.0,9.0,96,0.00,,,1.58,84.000000,,2013-02-11 20:52:00,
2013-02-11 16:02:00,55.0,54.0,-100.00,SW,222,2.0,8.0,97,0.00,,,1.58,62.000000,,2013-02-11 21:02:00,
2013-02-11 16:32:00,55.0,54.0,-100.00,SW,222,2.0,8.0,97,0.00,,,1.58,62.000000,,2013-02-11 21:32:00,
2013-02-11 16:42:00,55.0,54.0,-100.00,SW,222,2.0,8.0,97,0.00,,,1.58,62.000000,,2013-02-11 21:42:00,
2013-02-11 16:52:00,55.0,54.0,-100.00,SW,222,2.0,8.0,97,0.00,,,1.58,62.000000,,2013-02-11 21:52:00,
2013-02-11 17:02:00,54.0,53.0,-100.00,WSW,237,3.0,8.0,95,0.01,,,1.51,39.000000,,2013-02-11 22:02:00,
2013-02-11 17:32:00,54.0,53.0,-100.00,WSW,237,3.0,8.0,95,0.01,,,1.51,39.000000,,2013-02-11 22:32:00,
2013-02-11 17:42:00,54.0,53.0,-100.00,WSW,237,3.0,8.0,95,0.01,,,1.51,39.000000,,2013-02-11 22:42:00,
2013-02-11 17:52:00,54.0,53.0,-100.00,WSW,237,3.0,8.0,95,0.01,,,1.51,39.000000,,2013-02-11 22:52:00,
2013-02-11 18:02:00,53.0,52.0,-100.00,West,260,3.0,6.0,96,0.00,,,1.23,15.000000,,2013-02-11 23:02:00,
2013-02-11 18:22:00,53.0,52.0,-100.00,West,260,3.0,6.0,96,0.00,,,1.23,15.000000,,2013-02-11 23:22:00,
2013-02-11 18:32:00,53.0,52.0,-100.00,West,260,3.0,6.0,96,0.00,,,1.23,15.000000,,2013-02-11 23:32:00,
2013-02-11 18:42:00,53.0,52.0,-100.00,West,260,3.0,6.0,96,0.00,,,1.23,15.000000,,2013-02-11 23:42:00,
2013-02-11 18:52:00,53.0,52.0,-100.00,West,260,3.0,6.0,96,0.00,,,1.23,15.000000,,2013-02-11 23:52:00,
2013-02-11 19:02:00,52.0,51.0,-100.00,WSW,255,2.0,7.0,97,0.00,,,0.96,1.000000,,2013-02-12 00:02:00,
2013-02-11 19:32:00,52.0,51.0,-100.00,WSW,255,2.0,7.0,97,0.00,,,0.96,1.000000,,2013-02-12 00:32:00,
2013-02-11 19:42:00,52.0,51.0,-100.00,WSW,255,2.0,7.0,97,0.00,,,0.96,1.000000,,2013-02-12 00:42:00,
2013-02-11 19:52:00,52.0,51.0,-100.00,WSW,255,2.0,7.0,97,0.00,,,0.96,1.000000,,2013-02-12 00:52:00,
2013-02-11 20:02:00,51.0,50.0,-100.00,WSW,250,3.0,6.0,98,0.00,,,0.73,0.000000,,2013-02-12 01:02:00,
2013-02-11 20:32:00,51.0,50.0,-100.00,WSW,250,3.0,6.0,98,0.00,,,0.73,0.000000,,2013-02-12 01:32:00,
2013-02-11 20:42:00,51.0,50.0,-100.00,WSW,250,3.0,6.0,98,0.00,,,0.73,0.000000,,2013-02-12 01:42:00,
2013-02-11 20:52:00,51.0,50.0,-100.00,WSW,250,3.0,6.0,98,0.00,,,0.73,0.000000,,2013-02-12 01:52:00,
2013-02-11 21:02:00,50.0,49.0,-100.00,WSW,253,3.0,6.0,98,0.00,,,0.59,0.000000,,2013-02-12 02:02:00,
2013-02-11 21:22:00,50.0,49.0,-100.00,WSW,253,3.0,6.0,98,0.00,,,0.59,0.000000,,2013-02-12 02:22:00,
2013-02-11 21:32:00,50.0,49.0,-100.00,WSW,253,3.0,6.0,98,0.00,,,0.59,0.000000,,2013-02-12 02:32:00,
2013-02-11 21:42:00,50.0,49.0,-100.00,WSW,253,3.0,6.0,98,0.00,,,0.59,0.000000,,2013-02-12 02:42:00,
2013-02-11 21:53:00,50.0,49.0,-100.00,WSW,253,3.0,6.0,98,0.00,,,0.59,0.000000,,2013-02-12 02:53:00,
2013-02-11 22:32:00,49.0,48.0,-100.00,WNW,295,2.0,6.0,97,0.00,,,0.50,0.000000,,2013-02-12 03:32:00,
2013-02-11 22:42:00,49.0,48.0,-100.00,WNW,295,2.0,6.0,97,0.00,,,0.50,0.000000,,2013-02-12 03:42:00,
2013-02-11 22:52:00,49.0,48.0,-100.00,WNW,295,2.0,6.0,97,0.00,,,0.50,0.000000,,2013-02-12 03:52:00,
2013-02-11 23:01:00,49.0,48.0,-100.00,WNW,295,2.0,6.0,97,0.00,,,0.50,0.000000,,2013-02-12 04:01:00,
2013-02-11 23:21:00,48.0,47.0,-100.00,West,272,3.0,7.0,98,0.00,,,0.43,0.000000,,2013-02-12 04:21:00,
2013-02-11 23:32:00,48.0,47.0,-100.00,West,272,3.0,7.0,98,0.00,,,0.43,0.000000,,2013-02-12 04:32:00,
2013-02-11 23:42:00,48.0,47.0,-100.00,West,272,3.0,7.0,98,0.00,,,0.43,0.000000,,2013-02-12 04:42:00,
2013-02-11 23:52:00,48.0,47.0,-100.00,West,272,3.0,7.0,98,0.00,,,0.43,0.000000,,2013-02-12 04:52:00,